Time,TemperatureF,DewpointF,PressureIn,WindDirection,WindDirectionDegrees,WindSpeedMPH,WindSpeedGustMPH,Humidity,HourlyPrecipIn,Conditions,Clouds,dailyrainin,SoftwareType,DateUTC
2013-06-03 00:12:00,63.8,62.0,29.84,WSW,250,5.0,15.0,95,0.00,,,0.00,weatherlink.com 1.10,2013-06-03 04:12:00,
2013-06-03 00:27:00,63.7,63.0,29.84,SSE,153,3.0,15.0,96,0.00,,,0.00,weatherlink.com 1.10,2013-06-03 04:27:00,
2013-06-03 00:42:00,63.8,63.0,29.84,NE,50,2.0,13.0,96,0.00,,,0.00,weatherlink.com 1.10,2013-06-03 04:42:00,
2013-06-03 00:58:00,63.9,63.0,29.84,SSW,208,7.0,12.0,96,0.00,,,0.00,weatherlink.com 1.10,2013-06-03 04:58:00,
2013-06-03 01:13:00,63.9,63.0,29.84,SW,222,6.0,12.0,96,0.00,,,0.00,weatherlink.com 1.10,2013-06-03 05:13:00,
2013-06-03 01:28:00,63.7,63.0,29.84,SE,139,5.0,13.0,96,0.00,,,0.00,weatherlink.com 1.10,2013-06-03 05:28:00,
2013-06-03 01:43:00,63.9,63.0,29.83,South,184,3.0,13.0,97,0.00,,,0.00,weatherlink.com 1.10,2013-06-03 05:43:00,
2013-06-03 01:58:00,63.7,63.0,29.83,SW,214,10.0,20.0,96,0.01,,,0.01,weatherlink.com 1.10,2013-06-03 05:58:00,
2013-06-03 02:13:00,63.0,62.0,29.83,SSW,205,2.0,16.0,96,0.01,,,0.01,weatherlink.com 1.10,2013-06-03 06:13:00,
2013-06-03 02:28:00,62.7,62.0,29.83,SW,235,7.0,11.0,97,0.01,,,0.01,weatherlink.com 1.10,2013-06-03 06:28:00,
2013-06-03 02:43:00,63.0,62.0,29.83,SSW,205,5.0,11.0,97,0.01,,,0.01,weatherlink.com 1.10,2013-06-03 06:43:00,
2013-06-03 02:58:00,63.5,63.0,29.82,SSE,166,6.0,16.0,97,0.00,,,0.01,weatherlink.com 1.10,2013-06-03 06:58:00,
2013-06-03 03:13:00,63.4,63.0,29.82,SSW,207,5.0,18.0,97,0.00,,,0.01,weatherlink.com 1.10,2013-06-03 07:13:00,
2013-06-03 03:28:00,63.2,62.0,29.82,East,89,6.0,17.0,97,0.00,,,0.01,weatherlink.com 1.10,2013-06-03 07:28:00,
2013-06-03 03:43:00,63.5,63.0,29.82,WSW,238,10.0,17.0,97,0.00,,,0.01,weatherlink.com 1.10,2013-06-03 07:43:00,
2013-06-03 03:58:00,63.5,63.0,29.83,WSW,238,7.0,9.0,97,0.00,,,0.01,weatherlink.com 1.10,2013-06-03 07:58:00,
2013-06-03 04:13:00,63.1,62.0,29.83,SW,214,5.0,11.0,97,0.02,,,0.03,weatherlink.com 1.10,2013-06-03 08:13:00,
2013-06-03 04:28:00,63.0,62.0,29.82,SSE,153,5.0,15.0,97,0.04,,,0.05,weatherlink.com 1.10,2013-06-03 08:28:00,
2013-06-03 04:43:00,62.9,62.0,29.82,South,176,6.0,14.0,97,0.06,,,0.07,weatherlink.com 1.10,2013-06-03 08:43:00,
2013-06-03 04:58:00,62.4,62.0,29.82,West,266,3.0,10.0,97,0.09,,,0.11,weatherlink.com 1.10,2013-06-03 08:58:00,
2013-06-03 05:13:00,63.3,63.0,29.82,WSW,245,3.0,9.0,98,0.09,,,0.12,weatherlink.com 1.10,2013-06-03 09:13:00,
2013-06-03 05:28:00,63.4,63.0,29.82,East,92,3.0,10.0,98,0.10,,,0.15,weatherlink.com 1.10,2013-06-03 09:28:00,
2013-06-03 05:43:00,63.6,63.0,29.81,WSW,243,4.0,10.0,98,0.09,,,0.16,weatherlink.com 1.10,2013-06-03 09:43:00,
2013-06-03 05:58:00,63.2,62.0,29.83,SW,214,2.0,14.0,97,0.07,,,0.18,weatherlink.com 1.10,2013-06-03 09:58:00,
2013-06-03 06:13:00,62.2,61.0,29.83,SW,221,4.0,11.0,97,0.08,,,0.20,weatherlink.com 1.10,2013-06-03 10:13:00,
2013-06-03 06:28:00,62.3,62.0,29.83,ESE,108,3.0,13.0,98,0.07,,,0.22,weatherlink.com 1.10,2013-06-03 10:28:00,
2013-06-03 06:43:00,63.0,63.0,29.83,West,265,6.0,9.0,98,0.06,,,0.22,weatherlink.com 1.10,2013-06-03 10:43:00,
2013-06-03 06:58:00,63.3,63.0,29.83,WSW,242,6.0,10.0,98,0.05,,,0.23,weatherlink.com 1.10,2013-06-03 10:58:00,
2013-06-03 07:13:00,63.4,63.0,29.84,South,186,3.0,12.0,98,0.03,,,0.23,weatherlink.com 1.10,2013-06-03 11:13:00,
2013-06-03 07:28:00,63.3,63.0,29.83,SSW,209,4.0,9.0,98,0.01,,,0.23,weatherlink.com 1.10,2013-06-03 11:28:00,
2013-06-03 07:43:00,63.1,63.0,29.84,SSW,196,3.0,7.0,98,0.01,,,0.23,weatherlink.com 1.10,2013-06-03 11:43:00,
2013-06-03 07:58:00,63.0,62.0,29.84,ESE,107,5.0,10.0,97,0.00,,,0.23,weatherlink.com 1.10,2013-06-03 11:58:00,
2013-06-03 08:13:00,63.1,62.0,29.84,SW,218,4.0,11.0,97,0.00,,,0.23,weatherlink.com 1.10,2013-06-03 12:13:00,
2013-06-03 08:28:00,63.1,62.0,29.84,SSW,201,4.0,9.0,97,0.00,,,0.23,weatherlink.com 1.10,2013-06-03 12:28:00,
2013-06-03 08:43:00,62.7,62.0,29.84,SW,224,3.0,10.0,97,0.00,,,0.23,weatherlink.com 1.10,2013-06-03 12:43:00,
2013-06-03 08:58:00,62.5,62.0,29.84,SSE,161,5.0,10.0,97,0.00,,,0.23,weatherlink.com 1.10,2013-06-03 12:58:00,
2013-06-03 09:13:00,62.5,62.0,29.83,WSW,238,1.0,12.0,98,0.00,,,0.23,weatherlink.com 1.10,2013-06-03 13:13:00,
2013-06-03 09:28:00,62.4,62.0,29.83,SSE,163,3.0,13.0,97,0.00,,,0.23,weatherlink.com 1.10,2013-06-03 13:28:00,
2013-06-03 09:43:00,62.2,61.0,29.83,SSW,195,2.0,10.0,97,0.00,,,0.23,weatherlink.com 1.10,2013-06-03 13:43:00,
2013-06-03 09:58:00,62.0,62.0,29.83,South,177,7.0,10.0,98,0.00,,,0.23,weatherlink.com 1.10,2013-06-03 13:58:00,
2013-06-03 10:13:00,61.8,61.0,29.83,WSW,238,8.0,11.0,98,0.03,,,0.26,weatherlink.com 1.10,2013-06-03 14:13:00,
2013-06-03 10:28:00,61.5,61.0,29.83,SSW,200,3.0,10.0,98,0.09,,,0.32,weatherlink.com 1.10,2013-06-03 14:28:00,
2013-06-03 10:43:00,61.5,61.0,29.83,SSW,195,7.0,9.0,98,0.16,,,0.39,weatherlink.com 1.10,2013-06-03 14:43:00,
2013-06-03 10:58:00,61.8,61.0,29.83,NNE,12,1.0,9.0,98,0.19,,,0.42,weatherlink.com 1.10,2013-06-03 14:58:00,
2013-06-03 11:13:00,61.7,61.0,29.82,SSW,211,2.0,9.0,98,0.20,,,0.46,weatherlink.com 1.10,2013-06-03 15:13:00,
2013-06-03 11:28:00,61.9,61.0,29.82,WSW,247,3.0,7.0,98,0.21,,,0.53,weatherlink.com 1.10,2013-06-03 15:28:00,
2013-06-03 11:43:00,62.0,62.0,29.82,SE,128,1.0,10.0,98,0.16,,,0.55,weatherlink.com 1.10,2013-06-03 15:43:00,
2013-06-03 11:58:00,62.9,62.0,29.82,West,281,3.0,13.0,98,0.29,,,0.71,weatherlink.com 1.10,2013-06-03 15:58:00,
2013-06-03 12:13:00,63.2,63.0,29.82,West,280,4.0,15.0,98,0.46,,,0.92,weatherlink.com 1.10,2013-06-03 16:13:00,
2013-06-03 12:28:00,62.7,62.0,29.82,SE,134,7.0,12.0,98,0.42,,,0.95,weatherlink.com 1.10,2013-06-03 16:28:00,
2013-06-03 12:43:00,63.1,63.0,29.82,SSE,158,1.0,13.0,98,0.42,,,0.97,weatherlink.com 1.10,2013-06-03 16:43:00,
2013-06-03 13:13:00,64.3,64.0,29.82,WSW,251,4.0,10.0,97,0.05,,,0.97,weatherlink.com 1.10,2013-06-03 17:13:00,
2013-06-03 13:28:00,64.2,63.0,29.82,ENE,68,2.0,10.0,97,0.02,,,0.97,weatherlink.com 1.10,2013-06-03 17:28:00,
2013-06-03 13:43:00,63.3,63.0,29.82,West,276,7.0,10.0,97,0.00,,,0.97,weatherlink.com 1.10,2013-06-03 17:43:00,
2013-06-03 13:58:00,63.0,62.0,29.82,SW,214,2.0,9.0,97,0.00,,,0.97,weatherlink.com 1.10,2013-06-03 17:58:00,
2013-06-03 14:14:00,63.1,62.0,29.81,NNE,18,5.0,8.0,97,0.00,,,0.00,weatherlink.com 1.10,2013-06-03 18:14:00,
2013-06-03 14:29:00,62.9,62.0,29.80,WSW,242,6.0,13.0,98,0.01,,,0.01,weatherlink.com 1.10,2013-06-03 18:29:00,
2013-06-03 14:44:00,63.2,63.0,29.80,SW,225,2.0,11.0,98,0.01,,,0.01,weatherlink.com 1.10,2013-06-03 18:44:00,
2013-06-03 14:59:00,63.4,63.0,29.80,WSW,238,1.0,12.0,97,0.01,,,0.01,weatherlink.com 1.10,2013-06-03 18:59:00,
2013-06-03 15:14:00,62.9,62.0,29.80,SW,228,2.0,7.0,97,0.01,,,0.01,weatherlink.com 1.10,2013-06-03 19:14:00,
2013-06-03 15:29:00,62.4,62.0,29.81,WSW,252,5.0,9.0,97,0.00,,,0.01,weatherlink.com 1.10,2013-06-03 19:29:00,
2013-06-03 15:44:00,62.1,62.0,29.80,WSW,239,4.0,11.0,98,0.00,,,0.01,weatherlink.com 1.10,2013-06-03 19:44:00,
2013-06-03 15:59:00,62.1,62.0,29.80,West,281,0.0,9.0,98,0.00,,,0.01,weatherlink.com 1.10,2013-06-03 19:59:00,
2013-06-03 16:14:00,62.1,62.0,29.80,SSW,195,4.0,12.0,98,0.01,,,0.02,weatherlink.com 1.10,2013-06-03 20:14:00,
2013-06-03 16:29:00,62.1,62.0,29.80,WNW,298,2.0,12.0,98,0.01,,,0.02,weatherlink.com 1.10,2013-06-03 20:29:00,
2013-06-03 16:44:00,61.8,61.0,29.80,SE,137,3.0,10.0,98,0.02,,,0.03,weatherlink.com 1.10,2013-06-03 20:44:00,
2013-06-03 16:59:00,61.8,61.0,29.80,WSW,246,4.0,9.0,98,0.02,,,0.03,weatherlink.com 1.10,2013-06-03 20:59:00,
2013-06-03 17:14:00,62.0,62.0,29.79,WSW,257,3.0,9.0,98,0.01,,,0.03,weatherlink.com 1.10,2013-06-03 21:14:00,
2013-06-03 17:29:00,62.0,62.0,29.79,SE,143,3.0,7.0,98,0.01,,,0.03,weatherlink.com 1.10,2013-06-03 21:29:00,
2013-06-03 17:44:00,62.2,62.0,29.79,SW,214,1.0,10.0,98,0.01,,,0.04,weatherlink.com 1.10,2013-06-03 21:44:00,
2013-06-03 17:59:00,62.2,62.0,29.79,ESE,107,4.0,10.0,98,0.02,,,0.05,weatherlink.com 1.10,2013-06-03 21:59:00,
2013-06-03 18:14:00,62.3,62.0,29.79,SE,127,2.0,8.0,98,0.05,,,0.08,weatherlink.com 1.10,2013-06-03 22:14:00,
2013-06-03 18:29:00,62.4,62.0,29.79,SW,218,3.0,12.0,98,0.07,,,0.10,weatherlink.com 1.10,2013-06-03 22:29:00,
2013-06-03 18:44:00,62.1,62.0,29.78,South,181,2.0,14.0,98,0.07,,,0.11,weatherlink.com 1.10,2013-06-03 22:44:00,
2013-06-03 18:59:00,62.0,62.0,29.79,SE,146,2.0,9.0,98,0.06,,,0.11,weatherlink.com 1.10,2013-06-03 22:59:00,
2013-06-03 19:14:00,61.6,61.0,29.79,South,190,6.0,13.0,98,0.03,,,0.11,weatherlink.com 1.10,2013-06-03 23:14:00,
2013-06-03 19:29:00,61.3,61.0,29.79,SW,214,5.0,9.0,98,0.01,,,0.11,weatherlink.com 1.10,2013-06-03 23:29:00,
2013-06-03 19:44:00,61.6,61.0,29.79,SSW,205,3.0,9.0,98,0.00,,,0.11,weatherlink.com 1.10,2013-06-03 23:44:00,
2013-06-03 19:59:00,61.7,61.0,29.79,SW,217,0.0,7.0,98,0.00,,,0.11,weatherlink.com 1.10,2013-06-03 23:59:00,
2013-06-03 20:14:00,61.7,61.0,29.79,South,176,2.0,9.0,98,0.00,,,0.11,weatherlink.com 1.10,2013-06-04 00:14:00,
2013-06-03 20:29:00,61.6,61.0,29.78,ESE,119,1.0,5.0,98,0.00,,,0.11,weatherlink.com 1.10,2013-06-04 00:29:00,
2013-06-03 20:44:00,61.8,61.0,29.79,SW,214,3.0,9.0,98,0.00,,,0.11,weatherlink.com 1.10,2013-06-04 00:44:00,
2013-06-03 20:59:00,62.0,62.0,29.78,West,270,0.0,8.0,99,0.00,,,0.11,weatherlink.com 1.10,2013-06-04 00:59:00,
2013-06-03 21:14:00,62.3,62.0,29.79,SW,233,3.0,7.0,99,0.00,,,0.11,weatherlink.com 1.10,2013-06-04 01:14:00,
2013-06-03 21:29:00,61.5,61.0,29.79,SSE,168,1.0,7.0,98,0.00,,,0.11,weatherlink.com 1.10,2013-06-04 01:29:00,
2013-06-03 21:44:00,61.4,61.0,29.79,SSW,203,2.0,8.0,98,0.00,,,0.11,weatherlink.com 1.10,2013-06-04 01:44:00,
2013-06-03 21:59:00,61.3,61.0,29.78,WSW,238,5.0,6.0,98,0.00,,,0.11,weatherlink.com 1.10,2013-06-04 01:59:00,
2013-06-03 22:14:00,61.5,61.0,29.77,SSW,204,3.0,7.0,99,0.00,,,0.11,weatherlink.com 1.10,2013-06-04 02:14:00,
2013-06-03 22:29:00,61.7,62.0,29.77,SW,233,2.0,6.0,99,0.00,,,0.11,weatherlink.com 1.10,2013-06-04 02:29:00,
2013-06-03 22:44:00,61.8,62.0,29.77,West,280,0.0,7.0,99,0.00,,,0.11,weatherlink.com 1.10,2013-06-04 02:44:00,
2013-06-03 22:59:00,61.8,62.0,29.78,North,10,1.0,3.0,99,0.00,,,0.11,weatherlink.com 1.10,2013-06-04 02:59:00,
2013-06-03 23:14:00,61.7,62.0,29.77,WNW,293,2.0,3.0,99,0.00,,,0.11,weatherlink.com 1.10,2013-06-04 03:14:00,
2013-06-03 23:29:00,61.7,62.0,29.77,SW,226,1.0,6.0,99,0.00,,,0.11,weatherlink.com 1.10,2013-06-04 03:29:00,
2013-06-03 23:44:00,61.7,62.0,29.77,WNW,302,2.0,4.0,99,0.00,,,0.11,weatherlink.com 1.10,2013-06-04 03:44:00,
2013-06-03 23:59:00,61.6,61.0,29.76,NW,310,2.0,6.0,99,0.00,,,0.11,weatherlink.com 1.10,2013-06-04 03:59:00,